Sacramento, CA

7:49 PM PST on February 24, 2017 (GMT -0800)
Sacramento International

Weather History for KSMF - February, 2013

Change the Weather History Date:

Thursday, February 21, 2013

  Actual Average Record
Temperature  
Mean Temperature 46 °F -  
Max Temperature 61 °F 61 °F 73 °F (1985)
Min Temperature 32 °F 42 °F 28 °F (2006)
Degree Days  
Heating Degree Days 18    
Moisture  
Dew Point 33 °F    
Average Humidity 65    
Maximum Humidity 96    
Minimum Humidity 31    
Precipitation  
Precipitation 0.00 in - - ()
Sea Level Pressure  
Sea Level Pressure 30.11 in    
Wind  
Wind Speed 7 mph (NW)    
Max Wind Speed 15 mph    
Max Gust Speed -    
Visibility 10 miles    
Events Fog    
Averages and records for this station are not official NWS values.
T = Trace of Precipitation, MM = Missing Value Source: NWS Daily Summary

Daily Weather History Graph

Daily Weather History Graph

Search for Another Location

Airport or City:

Trip Planner

Search our weather history database for the weather conditions in past years. The results will help you decide how hot, cold, wet, or windy it might be!

Date:

Astronomy

Feb. 21, 2013 Rise Set
Actual Time 6:49 AM PST 5:51 PM PST
Civil Twilight 6:22 AM PST 6:18 PM PST
Nautical Twilight 5:51 AM PST 6:49 PM PST
Astronomical Twilight 5:20 AM PST 7:19 PM PST
Moon 2:12 PM PST (2/21) 3:55 AM PST (2/21)
Length of Visible Light 11h 55m
Length of Day
11h 01m
Waxing Gibbous, 84% of the Moon is Illuminated
Feb 21
Waxing Gibbous
Feb 25
Full
Mar 4
Last Quarter
Mar 11
New
Mar 19
First Quarter

Hourly Weather History & Observations

Time (PST) Temp. Windchill Dew Point Humidity Pressure Visibility Wind Dir Wind Speed Gust Speed Precip Events Conditions
12:53 AM 39.9 °F 34.5 °F 32.0 °F 73% 30.03 in 10.0 mi SE 8.1 mph - N/A   Clear
1:53 AM 37.9 °F 33.5 °F 34.0 °F 86% 30.04 in 10.0 mi South 5.8 mph - N/A   Clear
3:53 AM 34.0 °F - 32.0 °F 92% 30.05 in 10.0 mi Calm Calm - N/A   Mostly Cloudy
4:53 AM 32.0 °F - 30.9 °F 96% 30.07 in 10.0 mi Calm Calm - N/A   Scattered Clouds
5:53 AM 36.0 °F - 34.0 °F 93% 30.08 in 10.0 mi Calm Calm - N/A   Clear
6:53 AM 32.0 °F 26.4 °F 30.9 °F 96% 30.09 in 10.0 mi North 5.8 mph - N/A Fog Shallow Fog
7:53 AM 34.0 °F 27.2 °F 33.1 °F 96% 30.13 in 10.0 mi NNW 8.1 mph - N/A Fog Shallow Fog
8:53 AM 42.1 °F 36.1 °F 37.9 °F 85% 30.15 in 10.0 mi North 10.4 mph - N/A   Clear
9:53 AM 48.0 °F - 39.9 °F 74% 30.16 in 10.0 mi NNW 9.2 mph - N/A   Clear
10:53 AM 51.1 °F - 41.0 °F 68% 30.16 in 10.0 mi NNW 9.2 mph - N/A   Clear
11:53 AM 54.0 °F - 39.0 °F 57% 30.14 in 10.0 mi NW 10.4 mph - N/A   Clear
12:53 PM 57.9 °F - 36.0 °F 44% 30.12 in 10.0 mi NNW 13.8 mph - N/A   Clear
1:53 PM 61.0 °F - 32.0 °F 34% 30.10 in 10.0 mi North 10.4 mph - N/A   Clear
2:53 PM 61.0 °F - 32.0 °F 34% 30.09 in 10.0 mi NNW 15.0 mph - N/A   Clear
3:53 PM 60.1 °F - 28.9 °F 31% 30.09 in 10.0 mi NNW 15.0 mph - N/A   Clear
4:53 PM 59.0 °F - 30.9 °F 35% 30.09 in 10.0 mi NW 11.5 mph - N/A   Clear
5:53 PM 52.0 °F - 32.0 °F 47% 30.09 in 10.0 mi NW 10.4 mph - N/A   Clear
6:53 PM 50.0 °F - 32.0 °F 50% 30.11 in 10.0 mi NW 10.4 mph - N/A   Clear
7:53 PM 51.1 °F - 30.0 °F 44% 30.11 in 10.0 mi WNW 5.8 mph - N/A   Clear
8:53 PM 45.0 °F - 32.0 °F 60% 30.12 in 10.0 mi Calm Calm - N/A   Clear
9:53 PM 45.0 °F - 32.0 °F 60% 30.14 in 10.0 mi Calm Calm - N/A   Clear
10:53 PM 45.0 °F 43.5 °F 32.0 °F 60% 30.15 in 10.0 mi ESE 3.5 mph - N/A   Clear
11:53 PM 39.9 °F 35.1 °F 32.0 °F 73% 30.16 in 10.0 mi SW 6.9 mph - N/A   Clear